Back to catalog

ONEWEB-0653

AliveCommunicationsPO
NORAD 55815·PAYLOAD·🇬🇧 United Kingdom

Launched Mar 9, 2023 from Cape Canaveral Space Force Station

Loading…

Next Passes (next 24 hours)

TLE

FreshSource: CelesTrak SupGP

Epoch: Sep 14, 2026, 21:43 UTC

1 55815C 23029V   26257.90505046  .00002993  00000+0  80824-2 0  2574
2 55815  87.8890 271.8164 0002047  93.0099 304.8522 13.14498517    16

Track ONEWEB-0653 in real time with AllMySat

Download on the App Store